EW1867 Weather Reports


Display with metric or nautical units.
time (UTC)temp
F
wind
direction
speed
MPH
gust
MPH
rain 1hr
in
rain 24hr
in
rain mn
in
humidity
%
barometer
mb
20260903214125 76 213 2.0 5.0 0.00 0.00 0.00 64 1011.9
20260903213225 75 209 2.0 6.0 0.00 0.00 0.00 64 1012.0
20260903212325 76 219 2.0 6.0 0.00 0.00 0.00 64 1012.1
20260903211425 76 227 3.0 9.0 0.00 0.00 0.00 64 1012.2
20260903210526 75 220 3.0 11.0 0.00 0.00 0.00 64 1012.2
20260903205625 75 215 3.0 11.0 0.00 0.00 0.00 65 1012.2
20260903204726 75 222 2.0 6.0 0.00 0.00 0.00 65 1012.3
20260903202926 74 221 2.0 10.0 0.00 0.00 0.00 65 1012.3
20260903202025 75 210 3.0 6.0 0.00 0.00 0.00 65 1012.4
20260903200225 74 215 3.0 7.0 0.00 0.00 0.00 66 1012.4
20260903195326 75 218 3.0 10.0 0.00 0.00 0.00 65 1012.5
20260903194425 76 217 2.0 6.0 0.00 0.00 0.00 63 1012.5
20260903193525 75 221 2.0 6.0 0.00 0.00 0.00 64 1012.7
20260903190826 74 123 1.0 4.0 0.00 0.00 0.00 66 1013.0
20260903185926 74 214 1.0 4.0 0.00 0.00 0.00 66 1013.1
20260903185025 74 222 2.0 4.0 0.00 0.00 0.00 67 1013.3
20260903183225 74 204 2.0 5.0 0.00 0.00 0.00 67 1013.6
20260903182325 73 162 1.0 6.0 0.00 0.00 0.00 67 1013.6
20260903181426 72 143 1.0 5.0 0.00 0.00 0.00 68 1013.7
20260903180526 72 147 1.0 5.0 0.00 0.00 0.00 69 1013.7
20260903175625 71 108 2.0 5.0 0.00 0.00 0.00 71 1013.7
20260903174725 71 101 2.0 6.0 0.00 0.00 0.00 70 1013.9
20260903172925 70 121 1.0 7.0 0.00 0.00 0.00 71 1013.7
20260903172026 70 163 1.0 4.0 0.00 0.00 0.00 72 1013.8
20260903171126 69 197 1.0 4.0 0.00 0.00 0.00 74 1013.9
20260903170225 68 169 1.0 2.0 0.00 0.00 0.00 75 1014.0
20260903165326 67 144 1.0 3.0 0.00 0.00 0.00 76 1014.1
20260903164425 66 118 1.0 4.0 0.00 0.00 0.00 78 1014.1
20260903163526 66 118 1.0 5.0 0.00 0.00 0.00 78 1014.0
20260903162625 65 114 1.0 5.0 0.00 0.00 0.00 79 1014.2
20260903160825 64 115 1.0 5.0 0.00 0.00 0.00 79 1014.3
20260903155925 64 125 1.0 3.0 0.00 0.00 0.00 79 1014.3
20260903155025 64 108 1.0 4.0 0.00 0.00 0.00 80 1014.3
20260903154126 64 126 1.0 3.0 0.00 0.00 0.00 79 1014.4
20260903153226 64 117 1.0 4.0 0.00 0.00 0.00 79 1014.4
20260903152326 64 117 1.0 4.0 0.00 0.00 0.00 79 1014.5
20260903151425 64 118 1.0 4.0 0.00 0.00 0.00 79 1014.4
20260903150526 63 104 1.0 3.0 0.00 0.00 0.00 81 1014.3
20260903145626 62 108 2.0 5.0 0.00 0.00 0.00 82 1014.4
20260903144725 61 108 2.0 5.0 0.00 0.00 0.00 83 1014.4
20260903143825 61 107 1.0 6.0 0.00 0.00 0.00 83 1014.3
20260903142925 61 104 1.0 4.0 0.00 0.00 0.00 83 1014.3
20260903142026 60 110 1.0 6.0 0.00 0.00 0.00 83 1014.2
20260903135325 60 98 1.0 5.0 0.00 0.00 0.00 84 1014.1
20260903134425 60 94 1.0 5.0 0.00 0.00 0.00 84 1014.1
20260903133526 60 96 1.0 5.0 0.00 0.00 0.00 84 1014.0
20260903132625 60 97 2.0 5.0 0.00 0.00 0.00 84 1014.1
20260903131725 60 99 1.0 5.0 0.00 0.00 0.00 84 1014.1
20260903125926 60 112 0.0 2.0 0.00 0.00 0.00 83 1014.1
20260903125025 60 107 1.0 2.0 0.00 0.00 0.00 83 1014.2
20260903123226 61 110 1.0 5.0 0.00 0.00 0.00 83 1014.1
20260903122325 61 124 1.0 3.0 0.00 0.00 0.00 83 1014.1
20260903120526 61 105 1.0 4.0 0.00 0.00 0.00 83 1014.1
20260903115626 61 104 1.0 5.0 0.00 0.00 0.00 83 1014.1
20260903114725 61 111 1.0 5.0 0.00 0.00 0.00 83 1014.1
20260903113825 61 110 1.0 5.0 0.00 0.00 0.00 83 1014.3
20260903112925 61 104 1.0 4.0 0.00 0.00 0.00 83 1014.4
20260903112025 61 108 1.0 5.0 0.00 0.00 0.00 83 1014.4
20260903111125 61 112 1.0 4.0 0.00 0.00 0.00 83 1014.6
20260903110226 61 103 1.0 4.0 0.00 0.00 0.00 83 1014.5
20260903105632 61 114 1.0 2.0 0.00 0.00 0.00 83 1014.4
20260903103525 61 112 1.0 3.0 0.00 0.00 0.00 82 1014.5
20260903102626 61 109 1.0 3.0 0.00 0.00 0.00 82 1014.5
20260903101725 61 109 2.0 7.0 0.00 0.00 0.00 82 1014.5
20260903095926 61 107 1.0 3.0 0.00 0.00 0.00 81 1014.6
20260903095025 61 105 1.0 4.0 0.00 0.00 0.00 81 1014.6
20260903094125 61 106 1.0 5.0 0.00 0.00 0.00 80 1014.6
20260903093225 62 111 1.0 2.0 0.00 0.00 0.00 80 1014.7
20260903091425 62 113 1.0 4.0 0.00 0.00 0.00 80 1014.8
20260903085626 62 125 1.0 3.0 0.00 0.00 0.00 78 1014.9
20260903084725 62 123 1.0 3.0 0.00 0.00 0.00 77 1014.9
20260903083826 62 0 0.0 3.0 0.00 0.00 0.00 77 1014.8
20260903081126 63 111 0.0 3.0 0.00 0.00 0.00 75 1014.8
20260903080226 63 111 1.0 4.0 0.00 0.00 0.00 74 1014.6
20260903075327 63 109 1.0 4.0 0.00 0.00 0.00 73 1014.6
20260903074425 63 0 0.0 2.0 0.00 0.00 0.00 72 1014.5
20260903073525 64 0 0.0 2.0 0.00 0.00 0.00 72 1014.6
20260903072626 64 0 0.0 1.0 0.00 0.00 0.00 71 1014.5
20260903071726 64 0 0.0 1.0 0.00 0.00 0.00 70 1014.3
20260903070826 65 0 0.0 2.0 0.00 0.00 0.00 69 1014.4
20260903065926 65 0 0.0 3.0 0.00 0.00 0.00 69 1014.4
20260903065025 65 0 0.0 1.0 0.00 0.00 0.00 69 1014.3
20260903062326 66 0 0.0 1.0 0.00 0.00 0.00 67 1014.3
20260903061426 66 0 0.0 2.0 0.00 0.00 0.00 67 1014.3
20260903060526 67 0 0.0 2.0 0.00 0.00 0.00 66 1014.4
20260903055625 67 0 0.0 1.0 0.00 0.00 0.00 66 1014.4
20260903054734 67 0 0.0 0.0 0.00 0.00 0.00 66 1014.4
20260903053826 68 0 0.0 1.0 0.00 0.00 0.00 65 1014.5
20260903052926 68 0 0.0 2.0 0.00 0.00 0.00 64 1014.5
20260903050226 69 0 0.0 3.0 0.00 0.00 0.00 63 1014.5
20260903045326 69 147 0.0 1.0 0.00 0.00 0.00 64 1014.5
20260903044426 70 214 1.0 3.0 0.00 0.00 0.00 63 1014.6
20260903042626 70 0 0.0 1.0 0.00 0.00 0.00 62 1014.5
20260903041726 70 0 0.0 1.0 0.00 0.00 0.00 61 1014.4
20260903035026 71 0 0.0 1.0 0.00 0.00 0.00 60 1014.2
20260903033226 71 202 0.0 1.0 0.00 0.00 0.00 59 1013.9
20260903032326 72 221 0.0 2.0 0.00 0.00 0.00 57 1013.8
20260903031426 72 0 0.0 2.0 0.00 0.00 0.00 56 1013.7
20260903030526 72 0 0.0 2.0 0.00 0.00 0.00 56 1013.8
20260903025626 72 0 0.0 3.0 0.00 0.00 0.00 56 1013.8
20260903024726 73 197 0.0 3.0 0.00 0.00 0.00 57 1013.9
20260903023826 73 217 1.0 2.0 0.00 0.00 0.00 58 1014.0
20260903022925 74 217 1.0 2.0 0.00 0.00 0.00 58 1014.0
20260903021126 74 213 2.0 6.0 0.00 0.00 0.00 57 1013.9
20260903015326 75 209 2.0 4.0 0.00 0.00 0.00 56 1013.8
20260903014426 76 192 1.0 4.0 0.00 0.00 0.00 56 1014.0
20260903013526 76 210 2.0 5.0 0.00 0.00 0.00 55 1014.2
20260903012626 76 215 2.0 6.0 0.00 0.00 0.00 56 1014.2
20260903011726 77 214 2.0 5.0 0.00 0.00 0.00 56 1014.2
20260903010826 77 193 1.0 6.0 0.00 0.00 0.00 55 1014.1
20260903004126 78 216 2.0 8.0 0.00 0.00 0.00 55 1014.4
20260903003226 78 190 2.0 6.0 0.00 0.00 0.00 54 1014.3
20260903002326 79 198 2.0 4.0 0.00 0.00 0.00 53 1014.4
20260903000526 79 221 2.0 5.0 0.00 0.00 0.00 53 1014.6
20260902235626 79 163 2.0 5.0 0.00 0.00 0.00 54 1014.6
20260902233826 79 219 2.0 5.0 0.00 0.00 0.00 53 1014.6
20260902232026 78 216 3.0 6.0 0.00 0.00 0.00 55 1014.8
20260902231126 79 225 2.0 9.0 0.00 0.00 0.00 53 1014.9
20260902230226 79 217 2.0 5.0 0.00 0.00 0.00 54 1014.9
20260902225326 79 220 3.0 7.0 0.00 0.00 0.00 54 1015.0
20260902224426 79 223 2.0 10.0 0.00 0.00 0.00 54 1015.1
20260902223526 80 219 2.0 8.0 0.00 0.00 0.00 53 1015.1
20260902222626 80 187 2.0 7.0 0.00 0.00 0.00 54 1015.1
20260902221726 79 212 2.0 6.0 0.00 0.00 0.00 53 1015.0
20260902220826 79 205 3.0 7.0 0.00 0.00 0.00 54 1015.2
20260902215026 79 217 3.0 4.0 0.00 0.00 0.00 53 1015.3